Regional Weather Roundup
Issued by NWS

Home | Current Version | Previous Version | Graphics & Text | Print | Product List | Glossary On
Versions: 1 2 3 4 5 6 7 8 9 10 11 12 13 14 15 16 17 18 19 20 21 22 23 24 25 26 27 28 29 30 31 32 33 34 35 36 37 38 39 40 41 42 43 44 45 46 47 48 49 50
000
ASUS43 KMPX 281801
RWRMN
WEATHER ROUNDUP FOR MINNESOTA
NATIONAL WEATHER SERVICE TWIN CITIES/CHANHASSEN MN
100 PM CDT MON JUL 28 2014


NOTE: "FAIR" INDICATES FEW OR NO CLOUDS BELOW 12,000 FEET WITH NO
SIGNIFICANT WEATHER AND/OR OBSTRUCTIONS TO VISIBILITY. N/A MEANS
CURRENT SKY AND/OR WEATHER CONDITIONS ARE NOT AVAILABLE.

MNZ060>063-068>070-281900-
   Twin Cities Metro

CITY           SKY/WX    TMP DP  RH WIND       PRES   REMARKS
TWIN CITIES    PTSUNNY   75  48  38 N10G18    30.19F
6HR MIN TEMP:  64; 6HR MAX TEMP:  75;

ST PAUL        PTSUNNY   73  48  41 N16       30.19F
CRYSTAL        CLOUDY    75  48  38 N12       30.18F
BLAINE         PTSUNNY   75  48  38 N13G18    30.19F
LAKEVILLE      CLOUDY    70  52  52 N8        30.19F
EDEN PRAIRIE   CLOUDY    75  54  47 NW10G17   30.18F
6HR MIN TEMP:  65; 6HR MAX TEMP:  76;

SOUTH ST PAUL  PTSUNNY   72  46  39 N8        30.19S
LAKE ELMO      FAIR      72  50  46 N6        30.20F
$$
MNZ001>005-007-008-013>017-022>024-027-028-281900-
   Northwest Minnesota

CITY           SKY/WX    TMP DP  RH WIND       PRES   REMARKS
BEMIDJI        PTSUNNY   69  51  53 N8        30.23F
HALLOCK        MOSUNNY   72  57  60 N10       30.25F
ROSEAU         SUNNY     73  57  56 N7        30.23F
WARROAD        MOSUNNY   72  57  60 NW9       30.23F
THIEF RVR FALL MOSUNNY   70  54  56 N12       30.25F
CROOKSTON      PTSUNNY   70  55  60 N8        30.26F
FOSSTON        MOSUNNY   70  54  56 NW12G17   30.25F
DETROIT LAKES  SUNNY     68  52  56 N13       30.27S
MOORHEAD       MOSUNNY   70  55  60 N12       30.26F
PARK RAPIDS    CLOUDY    71  51  49 N16       30.23F
$$
MNZ006-009>011-018-025>026-281900-
   North Central Minnesota

CITY           SKY/WX    TMP DP  RH WIND       PRES   REMARKS
BAUDETTE       SUNNY     72  51  47 NW13G21   30.22F
FLAG ISLAND    SUNNY     72  54  53 N10       30.20F
INTL FALLS     MOSUNNY   73  54  51 NW13G20   30.17F
6HR MIN TEMP:  52; 6HR MAX TEMP:  74;

WASKISH        MOSUNNY   72  55  56 CALM      30.21F
BIG FORK       MOSUNNY   70  52  52 N8        30.20F
LONGVILLE      MOSUNNY   70  55  60 N5        30.21F
GRAND RAPIDS   MOSUNNY   70  52  52 N10G18    30.20F
CRANE LAKE     MOSUNNY   70  52  52 NW8       30.17F
ORR            MOSUNNY   72  52  49 NW9G16    30.16S
COOK           MOSUNNY   70  54  56 NW7       30.18S
$$
MNZ012-019>021-037-281900-
   Northeast Minnesota

CITY           SKY/WX    TMP DP  RH WIND       PRES   REMARKS
DULUTH         MOSUNNY   71  52  50 NW10G21   30.17F
6HR MIN TEMP:  58; 6HR MAX TEMP:  72;

ELY            MOSUNNY   70  52  52 W12       30.15F
HIBBING        PTSUNNY   71  53  52 NW13      30.19F
EVELETH        MOSUNNY   72  52  49 NW10G18   30.18F
DULUTH HARBOR  PTSUNNY   73  54  49 N10       30.16F
TWO HARBORS    MOSUNNY   72  54  53 NW8       30.13F
SILVER BAY     SUNNY     72  55  56 NW5       30.11F
GRAND MARAIS     N/A     69  52  54 SW3       30.07F
G MARAIS ARPRT MOSUNNY   66  50  55 W8G21     30.12F
$$
MNZ029>031-032-039>041-046>048-054>057-064-281900-
   West Central Minnesota

CITY           SKY/WX    TMP DP  RH WIND       PRES   REMARKS
FERGUS FALLS   MOSUNNY   70  52  52 N9G17     30.25F
WHEATON        MOSUNNY   66  52  59 NW12      30.28F
MORRIS         PTSUNNY   70  57  64 NW12      30.25F
ALEXANDRIA     PTSUNNY   70  50  49 N12       30.25F
ELBOW LAKE     CLOUDY    68  56  65 N10       30.26F
WADENA         MOSUNNY   72  52  49 NW10      30.23F
GLENWOOD       MOSUNNY   72  50  46 NW12      30.24F
APPLETON       PTSUNNY   73  52  46 N8        30.24F
BENSON         CLOUDY    70  57  64 N12       30.25F
ORTONVILLE     PTSUNNY   72  52  49 N13       30.26F
MADISON        MOSUNNY   72  55  56 N13       30.25F
WILLMAR        FAIR      72  52  49 NW13      30.25S
$$
MNZ033>034-036-042>043-049>051-058-059-281900-
   Central Minnesota

CITY           SKY/WX    TMP DP  RH WIND       PRES   REMARKS
ST CLOUD       PTSUNNY   73  52  47 NW9       30.20F
6HR MIN TEMP:  63; 6HR MAX TEMP:  76;

SAUK CENTRE    MOCLDY    71  52  50 NW10      30.23F
PAYNESVILLE    CLOUDY    69  45  41 NW9       30.23F
AITKIN         MOSUNNY   73  55  53 N8        30.19F
PINE RIVER     PTSUNNY   70  54  56 NW5       30.24F
BRAINERD       MOSUNNY   72  51  47 N13G21    30.21F
STAPLES        PTSUNNY   72  52  49 NW10      30.22F
LONG PRAIRIE   PTSUNNY   70  52  52 NW10      30.23F
LITTLE FALLS   MOSUNNY   70  50  49 N7        30.21F
LITCHFIELD     CLOUDY    72  55  56 N8        30.22F
BUFFALO        PTSUNNY   73  47  40 N7        30.21F
MAPLE LAKE     PTSUNNY   73  56  54 NW7       30.21F
$$
MNZ037-044-045-052-053-281900-
   East Central Minnesota

CITY           SKY/WX    TMP DP  RH WIND       PRES   REMARKS
PRINCETON      PTSUNNY   73  54  49 N3        30.20S
MORA           MOSUNNY   70  52  52 N7        30.21F
CAMBRIDGE      PTSUNNY   73  55  53 NW6       30.18S
RUSH CITY      PTSUNNY   72  51  47 N8        30.19F
MOOSE LAKE     PTSUNNY   70  52  52 NW6       30.17F
HINCKLEY       FAIR      72  55  56 N7        30.19S
CLOQUET        MOSUNNY   72  48  43 NW12G18   30.18F
MCGREGOR       MOSUNNY   72  50  46 NW9       30.20F
$$
MNZ071>073-080-081-089-090-097-098-281900-
   Southwest Minnesota

CITY           SKY/WX    TMP DP  RH WIND       PRES   REMARKS
MONTEVIDEO     CLOUDY    70  57  64 N9        30.25S
GRANITE FALLS  CLOUDY    70  56  61 NW8       30.25F
CANBY          PTSUNNY   71  53  53 N10       30.27S HAZE
MARSHALL       MOSUNNY   72  54  53 N13       30.24F
REDWOOD FALLS  CLOUDY    72  56  57 N8        30.23S
OLIVIA         CLOUDY    70  52  52 N7        30.23S
PIPESTONE      CLOUDY    70  54  56 N6        30.26F
WINDOM         MOSUNNY   70  55  60 N9        30.24F
WORTHINGTON    PTSUNNY   66  57  72 N7        30.27S
JACKSON        PTSUNNY   72  55  56 NE6       30.25S
TRACY          MOSUNNY   71  58  63 N9        30.25F
SLAYTON        CLOUDY    67  58  71 CALM      30.27S
$$
MNZ065>067-074>077-082>085-091>093-281900-
   South Central Minnesota

CITY           SKY/WX    TMP DP  RH WIND       PRES   REMARKS
MANKATO        CLOUDY    72  52  49 NW12      30.21F
NEW ULM        SUNNY     72  52  49 N9        30.22S
ST JAMES       MOSUNNY   73  54  49 N6        30.23F
FAIRMONT       CLOUDY    72  55  56 N8        30.23F
GLENCOE        SUNNY     72  52  49 NW7       30.20F
FARIBAULT      PTSUNNY   75  48  38 NW9       30.20F
OWATONNA       MOSUNNY   73  48  40 N9        30.20F
WASECA         PTSUNNY   72  54  53 NW8       30.23S
ALBERT LEA     MOSUNNY   72  54  53 N8        30.21S
$$
MNZ078>079-086>088-094>096-281900-
   Southeast Minnesota

CITY           SKY/WX    TMP DP  RH WIND       PRES   REMARKS
ROCHESTER      CLOUDY    72  52  49 N9        30.21F
6HR MIN TEMP:  58; 6HR MAX TEMP:  72;

RED WING       PTSUNNY   72  54  53 W6        30.18S
STANTON        PTSUNNY   73  51  45 N8        30.18F
DODGE CENTER   MOSUNNY   72  55  56 N14       30.20F
WINONA         CLOUDY    72  50  46 NW10      30.18S
AUSTIN         PTSUNNY   70  55  60 N7        30.20S
PRESTON        PTSUNNY   67  58  70 NE5       30.20F
$$
ABBREVIATIONS USED IN REMARKS
   TC - TEMPERATURES IN CELSIUS
  WCI - WIND CHILL INDEX
   HX - HEAT INDEX
  VSB - VISIBILITY
$$



USA.gov is the U.S. government's official web portal to all federal, state and local government web resources and services.